Wind_Speed
15 16 15 15 15 15 16 17 18 19 20 21 21 22 23 24 25 25 25 26 27 28 30 32 32 32 33 34 32 32 33 34 34 34 35 34 33 33 32 31 30 30 30 29 28 28 29 28 28 27 27 26 25 23 23 25 28 29 30 30 32 35 37 38 40 40 39 40 42 42 41 42 42 43 45 47 49 51 53 54 53 52 51 48 46
15 15 15 15 15 16 18 18 18 20 22 22 23 22 22 24 26 26 28 29 30 31 31 32 33 34 35 36 34 35 38 39 37 35 36 36 36 36 36 34 33 32 32 30 29 29 29 28 28 27 27 26 25 24 25 27 29 30 31 32 34 37 38 39 41 43 42 41 42 43 44 44 43 44 46 48 50 52 54 54 54 54 53 52 50
15 15 15 15 16 17 18 18 19 21 23 23 23 23 23 24 25 27 29 31 33 34 34 34 35 36 37 36 35 37 39 41 41 40 38 38 38 38 38 37 36 35 33 31 29 29 29 29 28 27 27 27 26 26 28 29 30 31 32 34 37 37 39 41 43 44 44 43 42 43 45 45 45 46 47 48 50 52 54 54 54 55 55 54 53
15 15 15 16 17 17 17 18 20 20 21 20 21 22 23 25 27 29 31 31 33 35 36 36 36 37 36 35 37 39 39 40 42 43 43 42 42 41 40 39 38 37 35 32 29 29 29 29 28 27 28 29 29 30 31 32 32 32 34 36 37 38 40 43 44 43 44 44 43 44 45 46 46 47 48 49 50 51 53 54 55 56 56 54 53
15 15 16 16 16 17 18 18 18 19 19 20 23 25 26 27 29 30 30 31 33 36 37 34 33 34 35 36 39 41 41 41 42 44 47 48 47 45 42 40 39 38 36 34 30 29 29 29 28 28 29 31 32 33 34 34 34 34 36 37 37 38 41 44 43 42 42 43 44 44 45 47 48 47 47 48 50 50 52 54 56 57 55 52 51
16 15 16 16 16 16 17 17 18 20 23 25 28 31 32 31 31 33 36 37 38 40 41 37 36 38 40 40 40 42 44 45 44 46 50 51 51 51 48 42 38 38 37 36 33 30 29 30 30 31 31 32 33 34 34 34 35 36 37 36 37 39 42 43 42 42 42 43 44 45 45 47 48 48 47 48 49 51 52 54 55 55 53 50 48
17 16 16 16 16 15 16 18 20 24 27 28 30 31 31 33 36 40 43 44 43 43 42 38 38 41 42 41 40 40 43 45 46 48 51 52 54 56 54 45 37 37 38 38 35 32 31 32 33 32 32 32 32 33 34 35 36 37 36 35 38 41 43 43 42 42 42 43 43 45 46 47 49 49 48 48 50 52 53 53 52 51 49 47 46
17 16 16 16 16 16 18 20 23 27 29 29 33 36 35 37 39 39 40 40 39 37 35 35 38 40 40 41 40 40 42 45 47 48 50 53 56 59 56 45 36 36 39 39 37 35 34 35 34 33 32 31 32 34 34 35 36 36 35 36 39 41 42 42 42 43 43 43 44 45 46 48 48 49 49 49 51 52 51 50 48 46 45 45 43
16 16 16 16 16 17 20 23 25 29 30 31 35 37 34 33 34 33 33 36 36 35 34 35 39 40 41 42 41 40 41 45 48 49 51 56 61 62 56 45 38 38 39 39 37 36 36 37 36 34 33 32 33 34 35 35 35 34 35 37 39 40 41 42 43 44 45 45 45 46 48 49 49 49 49 50 51 51 48 46 44 42 42 42 39
18 18 17 16 17 19 22 25 27 30 32 33 35 35 31 29 31 32 33 35 37 38 38 39 41 40 40 41 38 36 38 41 44 46 47 51 57 60 56 46 42 42 40 38 38 37 37 38 38 36 33 33 34 34 35 35 35 35 36 37 38 39 40 42 43 45 45 45 46 48 49 49 49 49 50 50 50 48 45 43 41 40 40 39 36
17 17 17 17 19 22 23 26 28 30 32 34 35 35 34 34 35 36 37 37 39 40 40 40 40 38 38 37 33 31 33 34 35 37 38 39 44 50 52 48 46 44 42 40 39 37 35 37 38 36 33 33 34 34 34 35 36 36 37 37 38 40 40 42 43 45 46 46 47 48 49 49 48 49 50 50 47 44 42 41 40 38 37 37 36
15 17 19 20 22 24 25 27 29 31 33 36 38 38 38 39 40 42 44 44 44 43 40 40 40 39 36 32 29 30 30 28 29 31 31 31 32 37 46 51 48 43 41 41 40 36 34 36 37 34 32 33 33 33 34 36 37 38 38 39 40 41 41 43 44 45 45 46 47 48 49 48 47 48 49 47 43 42 41 39 38 37 36 36 35
18 20 22 23 24 25 26 28 31 33 35 38 41 42 43 43 44 46 47 48 47 44 41 41 41 37 30 26 26 28 27 26 28 28 28 29 30 31 39 47 48 43 41 41 40 36 35 36 35 33 32 32 32 33 36 39 39 39 40 42 43 42 43 44 45 45 45 45 46 47 48 47 46 47 46 43 41 41 40 38 37 37 36 36 35
22 23 24 25 25 26 27 29 32 34 36 39 41 43 45 46 47 48 49 49 48 44 40 39 38 33 28 26 26 26 25 26 29 28 27 29 30 31 32 38 43 44 43 42 40 36 35 35 32 31 30 30 32 35 39 41 41 41 43 44 44 44 44 45 45 46 45 46 46 47 46 46 45 45 43 40 40 40 39 37 36 36 36 36 35
26 26 27 27 27 28 29 31 33 36 37 39 41 44 46 47 48 49 49 48 46 41 37 37 36 34 32 29 26 24 25 26 27 28 29 31 32 31 29 32 40 44 43 41 38 35 34 32 30 30 30 32 36 39 41 43 43 44 45 45 44 45 46 46 46 46 46 46 46 46 45 44 44 43 41 39 39 40 39 36 36 36 36 35 35
29 29 29 29 30 31 31 32 35 36 38 39 41 43 45 46 48 48 47 46 43 39 37 36 35 34 32 29 26 25 25 26 27 30 33 34 33 30 27 31 40 44 42 38 35 34 33 30 28 30 33 37 41 43 44 45 45 45 45 44 44 46 47 47 46 46 47 46 45 45 44 44 43 42 40 39 39 39 38 36 36 37 36 35 35
32 31 31 31 32 33 34 35 37 38 40 41 42 43 44 46 47 46 44 42 41 39 37 35 34 33 32 30 28 26 25 26 28 30 31 31 29 27 26 33 42 44 38 33 31 32 31 28 28 31 36 41 44 44 45 46 46 46 45 45 46 47 47 48 47 46 46 45 44 44 44 43 43 42 40 39 38 38 38 36 35 36 36 35 34
36 35 35 35 35 35 37 40 42 43 44 45 45 44 45 45 45 44 42 40 40 40 37 34 31 31 31 29 27 26 26 26 27 28 28 27 25 24 26 33 39 38 32 29 29 30 30 30 31 36 42 45 46 45 46 46 46 46 46 46 47 47 47 48 48 47 45 44 43 43 43 42 42 41 40 39 38 39 38 36 35 36 35 34 34
39 38 38 38 38 38 38 41 45 47 49 49 49 46 44 44 43 43 41 41 41 41 39 35 31 30 30 29 27 27 27 27 28 29 29 29 26 24 26 33 35 31 27 27 28 30 32 34 36 42 47 48 47 48 48 47 46 47 47 47 47 47 47 48 47 46 45 43 42 42 42 41 41 40 38 38 38 39 38 37 35 35 34 33 34
42 42 41 41 41 41 40 43 47 49 51 52 52 48 44 43 43 42 42 42 41 40 38 35 32 30 29 28 28 29 29 29 30 30 29 29 28 25 26 31 31 27 25 26 28 31 34 38 41 46 49 49 48 49 48 46 47 48 48 48 47 47 48 47 46 45 44 42 42 42 41 41 40 39 37 37 38 38 37 36 35 35 35 33 33
44 44 43 43 44 43 44 45 48 51 52 54 53 49 45 43 43 43 42 41 39 37 36 34 31 30 29 29 30 31 31 31 31 30 28 27 27 26 26 27 27 25 26 28 30 33 38 42 44 47 49 49 48 47 47 47 49 49 49 48 47 47 47 47 46 45 43 42 42 41 40 39 38 37 36 37 37 37 36 35 34 35 35 34 34
46 46 46 46 46 45 45 47 49 50 53 54 51 47 45 44 43 42 41 39 37 35 34 32 31 31 31 32 32 32 32 32 31 30 27 24 25 25 23 24 26 28 29 32 34 36 40 43 45 46 47 47 46 47 48 50 50 49 48 48 47 47 47 46 45 44 43 42 41 40 39 38 37 36 36 36 37 36 35 34 34 35 35 35 35
47 47 48 49 48 47 46 46 48 49 51 51 48 44 42 42 41 39 38 36 35 34 34 33 33 34 34 35 35 34 34 33 30 28 25 23 24 24 24 26 28 30 33 38 39 38 39 41 42 44 45 45 47 49 51 50 49 48 48 48 48 47 47 46 44 43 42 41 40 38 38 37 36 35 35 36 36 35 34 33 33 35 35 34 34
48 47 49 51 51 49 47 46 47 48 49 49 45 41 38 37 37 36 35 35 35 35 35 35 36 37 38 39 39 37 36 34 29 26 24 26 28 28 28 31 34 35 39 43 43 41 41 42 43 44 46 48 50 51 50 48 47 48 49 49 48 46 45 44 43 42 41 40 38 37 36 35 35 34 34 35 36 34 33 32 32 34 34 33 33
48 47 49 51 50 49 47 47 47 47 47 45 42 38 35 33 33 33 34 36 36 37 38 38 39 40 41 41 41 39 38 35 28 24 25 29 31 31 34 37 39 41 44 45 44 44 44 44 45 46 48 49 50 49 47 47 48 49 49 47 46 45 44 43 42 41 39 38 36 35 34 34 34 33 34 35 35 34 32 31 31 32 32 32 32
48 46 46 47 47 48 48 47 45 44 44 41 37 35 32 31 32 34 35 37 38 39 40 41 42 42 42 41 41 40 38 33 26 23 26 30 33 36 39 41 41 43 44 44 43 43 44 45 46 47 48 49 48 47 48 49 49 49 47 45 44 43 42 41 40 39 37 35 34 33 33 33 33 33 34 35 35 34 33 31 31 32 32 31 32
46 45 45 46 47 47 46 45 43 42 41 38 35 33 33 33 34 35 36 38 39 41 42 43 44 44 42 41 40 39 36 32 27 25 28 31 34 37 39 40 41 42 42 41 41 42 43 45 46 46 47 47 48 49 49 49 48 46 45 43 42 42 41 41 39 37 35 33 32 32 32 32 33 33 34 35 35 34 33 32 32 32 32 31 31
45 45 47 48 47 46 44 43 42 41 39 37 35 35 36 36 36 37 38 39 41 43 44 44 44 44 42 41 41 39 36 32 29 29 30 32 34 35 36 37 39 39 40 40 41 41 42 43 45 46 46 47 47 47 47 45 44 44 43 42 42 41 41 40 38 35 33 32 31 31 31 32 32 33 34 34 34 34 33 32 32 32 32 32 32
46 47 48 47 45 43 43 42 41 40 39 38 37 38 38 38 38 38 39 41 42 43 43 42 42 42 42 42 41 38 35 32 32 33 34 34 34 34 34 36 37 38 39 40 40 41 43 43 44 44 44 44 44 43 43 42 42 42 41 41 41 40 39 38 35 33 32 31 30 31 31 31 32 33 33 33 33 33 32 32 32 31 31 32 32
48 48 47 45 44 43 42 41 40 40 39 39 39 39 39 39 39 40 41 43 43 43 42 40 40 42 42 40 38 37 36 37 37 36 34 33 33 33 34 36 37 39 40 40 41 43 44 42 41 40 40 40 41 40 40 40 40 39 39 39 39 38 36 34 33 31 30 30 30 30 30 30 31 31 32 32 31 31 31 30 30 29 29 30 31
49 48 46 44 43 42 41 40 39 39 39 39 40 40 41 41 41 42 43 43 43 42 42 42 42 44 43 41 40 41 41 41 39 36 34 34 34 35 36 38 39 40 40 41 42 43 41 39 38 38 38 39 39 39 38 38 37 37 37 36 36 35 33 31 31 30 29 29 29 29 29 29 30 30 30 30 30 30 29 28 28 27 28 28 29
48 47 45 43 42 40 39 39 39 39 39 40 41 42 43 44 44 44 44 44 43 43 43 43 44 44 44 44 43 42 41 40 38 35 34 35 36 37 39 39 40 40 40 41 40 39 37 37 37 38 37 37 37 37 36 36 35 35 35 35 34 32 31 29 29 29 28 28 28 28 28 29 29 29 29 29 29 28 28 27 26 26 27 28 29
45 44 43 42 41 39 39 39 39 40 40 42 43 44 45 46 45 45 45 45 44 43 43 42 43 43 44 43 42 41 40 38 36 34 35 37 39 40 40 40 39 39 39 38 36 36 36 37 37 36 35 35 35 35 34 34 34 34 34 33 32 30 29 28 28 28 28 28 28 28 28 28 28 28 28 28 28 27 26 26 25 26 26 27 28
43 44 43 42 41 41 41 41 41 42 43 44 45 46 46 46 46 45 45 44 43 42 42 42 42 42 41 40 40 39 37 35 34 35 37 40 40 41 40 39 38 37 36 35 35 36 37 37 35 34 33 32 32 32 33 33 33 33 32 31 30 29 28 28 28 28 28 28 27 27 27 27 27 27 27 27 27 26 25 25 25 25 26 26 27
44 44 43 42 42 42 42 42 43 44 45 46 46 46 46 46 45 45 44 43 42 41 41 41 41 40 39 38 37 36 34 34 35 38 40 41 41 40 40 39 37 36 35 35 37 38 37 35 33 31 31 30 31 31 32 32 31 31 30 30 29 28 27 27 27 27 27 27 27 26 26 27 26 25 26 26 26 26 25 24 24 24 25 25 25
44 43 43 43 42 42 42 43 45 46 47 47 46 46 45 45 44 43 42 42 41 40 40 40 39 38 37 36 34 33 33 35 37 40 40 40 40 39 38 38 37 36 36 37 38 37 35 33 31 30 30 30 30 31 31 31 30 30 29 29 28 27 27 27 27 27 26 26 26 26 25 26 25 25 25 25 25 24 24 24 24 24 24 24 24
43 43 42 42 42 43 44 46 47 47 47 46 45 44 44 43 42 42 41 41 41 41 40 39 38 36 34 33 32 33 34 37 39 40 40 39 38 36 35 36 36 35 36 37 36 36 34 32 31 31 30 31 31 31 31 31 31 30 29 29 28 27 27 26 26 26 26 26 25 25 25 25 25 25 24 24 24 24 24 23 23 23 23 23 23
42 42 42 42 44 45 46 47 48 47 46 45 43 42 42 41 41 41 41 41 41 40 39 36 34 33 32 32 33 35 37 39 39 39 38 37 35 33 33 34 34 34 35 35 35 34 34 33 32 31 31 31 31 32 32 32 31 30 29 28 27 26 26 26 26 26 26 26 25 24 24 24 24 24 24 24 23 23 23 23 22 22 23 22 22
42 42 43 44 45 46 46 47 47 46 44 42 41 41 41 41 41 40 40 40 39 37 34 32 31 31 32 34 36 38 39 38 37 36 35 33 32 32 32 32 33 33 34 34 34 34 33 32 32 31 31 31 31 31 31 31 31 30 28 27 26 26 26 26 26 26 25 25 25 24 24 24 24 24 24 23 23 23 23 23 22 22 22 22 21
43 44 44 45 45 45 45 45 44 42 41 40 41 42 42 41 39 38 38 37 36 33 30 30 32 33 35 37 38 38 36 35 33 32 31 31 31 31 31 32 32 33 33 34 33 33 32 31 31 30 30 30 30 30 30 30 30 29 27 26 26 26 26 26 25 25 25 24 24 24 24 24 24 24 24 23 22 22 23 23 22 21 21 21 20
44 44 44 43 43 43 43 43 42 41 41 42 44 44 41 38 36 37 37 35 32 30 29 31 33 35 36 36 36 34 33 32 31 30 29 30 30 30 31 31 32 32 32 32 31 31 30 30 30 30 29 29 29 29 29 29 29 28 27 26 25 25 25 25 25 24 24 24 24 24 24 24 24 24 24 23 22 22 22 23 22 21 21 20 20
43 43 42 42 42 42 42 42 41 42 43 44 43 41 38 37 37 37 35 31 28 27 29 31 32 33 34 34 33 31 30 29 29 29 29 29 29 29 29 30 30 30 30 29 29 29 29 29 29 29 29 29 28 28 28 28 28 27 26 25 25 24 24 24 24 24 24 25 24 24 24 24 24 24 24 23 23 22 22 22 22 21 20 20 19
41 41 41 41 41 42 42 42 42 43 43 41 39 37 37 38 38 35 30 26 26 28 30 32 33 34 34 33 31 29 28 28 28 28 27 27 27 27 27 28 28 29 28 28 27 27 27 28 28 28 29 28 28 28 27 27 27 26 25 25 24 24 24 24 24 24 24 24 24 24 24 24 23 23 24 24 23 23 22 22 21 21 20 19 19
41 42 42 42 42 42 42 42 42 41 41 39 38 38 38 37 34 30 27 27 29 31 33 33 33 32 31 29 27 27 27 26 26 25 24 24 25 25 26 26 27 27 27 26 26 25 26 26 27 27 27 27 27 27 27 27 26 25 25 24 23 23 23 23 24 24 24 24 24 24 24 23 23 23 23 23 23 23 23 22 22 21 20 19 18
43 43 43 43 43 43 42 42 41 40 40 39 38 37 36 33 31 31 32 34 34 32 30 29 28 27 26 26 25 25 24 23 22 22 22 22 23 23 23 24 24 25 25 25 24 24 24 24 25 25 25 26 26 26 25 25 25 24 23 23 23 23 23 23 23 24 24 24 24 24 24 23 23 23 23 23 23 24 23 23 22 21 20 19 19
43 43 43 44 43 42 41 39 38 38 37 36 34 33 33 32 33 35 37 36 32 28 26 25 25 24 24 23 23 22 21 20 20 20 20 20 20 20 21 22 22 23 23 23 23 23 23 23 23 23 23 23 23 23 23 23 23 22 22 22 22 22 22 23 23 24 24 24 24 24 24 24 24 24 24 24 24 25 24 24 23 22 21 20 19
41 41 42 42 40 37 34 32 32 34 34 34 34 34 34 35 36 36 34 31 27 24 24 24 24 23 23 21 20 19 19 18 19 19 19 19 19 19 20 21 21 22 22 21 21 21 22 22 22 22 22 22 22 21 21 21 21 20 20 20 21 21 22 23 23 24 24 24 25 25 25 26 26 26 26 25 25 25 25 25 24 23 22 20 19
36 35 35 34 32 30 29 29 31 32 34 35 36 36 37 37 36 33 29 26 24 23 24 24 23 22 21 20 19 18 18 18 17 17 18 18 18 19 19 20 20 20 20 20 20 20 21 21 21 21 21 21 21 21 21 20 20 20 20 21 21 22 23 23 24 24 24 25 25 25 25 26 25 25 24 24 23 23 24 24 23 23 22 21 20
30 29 28 28 28 29 30 32 33 35 36 37 38 38 36 34 31 28 26 25 24 24 24 23 22 20 19 19 19 19 18 17 17 17 17 17 17 18 19 19 20 20 20 20 20 20 21 21 21 21 21 21 21 21 21 22 22 22 22 22 23 23 24 24 24 24 24 25 25 24 23 23 22 21 20 20 19 19 20 20 21 21 21 20 19
26 25 25 25 26 28 30 32 33 35 36 36 35 34 32 30 27 26 25 25 25 25 24 22 21 19 18 18 19 19 18 18 17 17 18 17 17 18 19 19 20 21 21 20 21 21 22 22 22 22 22 22 22 22 22 22 23 23 23 23 23 23 24 24 24 24 24 23 23 21 20 19 18 17 16 16 16 15 16 16 17 17 17 18 18
24 23 23 24 25 26 27 29 30 31 31 31 31 30 28 27 26 26 26 26 26 25 23 21 19 18 18 19 20 20 19 19 19 19 18 19 19 19 20 20 21 22 22 22 22 22 22 23 24 23 23 23 23 23 23 23 23 23 23 23 23 23 23 24 24 24 23 21 19 18 17 16 15 14 13 13 12 12 12 13 13 13 14 15 15
Wind_Direction
236 240 245 251 256 261 268 276 283 289 292 295 298 303 306 304 303 304 303 300 298 297 296 295 295 296 296 297 293 287 289 291 287 285 286 286 286 284 281 280 282 284 284 282 282 283 284 286 288 289 289 287 287 290 293 297 299 300 302 305 308 309 308 308 307 306 306 305 303 301 300 300 299 297 295 294 293 292 291 291 292 292 291 290 287
238 243 248 252 257 264 271 278 286 291 296 298 300 302 304 302 302 302 300 300 299 296 295 295 296 293 292 294 291 287 290 291 287 284 283 284 285 284 281 280 279 280 281 281 280 280 283 287 289 289 287 285 286 289 294 297 298 299 301 304 308 309 308 306 305 304 303 303 302 301 301 299 298 296 294 293 292 291 291 291 292 292 291 290 288
242 246 250 256 262 267 275 285 292 298 302 302 300 300 299 298 298 297 296 295 295 293 291 292 291 290 290 293 292 291 291 290 287 283 282 284 285 282 280 279 278 276 278 279 279 278 280 284 287 287 285 283 284 288 293 295 296 297 299 304 307 308 307 305 304 303 302 301 301 301 301 299 297 295 293 292 292 291 292 293 293 292 290 289 287
245 250 255 260 266 274 285 294 297 301 304 303 302 299 294 291 291 291 292 293 293 293 292 292 292 291 291 291 292 293 292 290 287 283 282 285 286 282 279 278 277 276 276 278 279 278 279 281 284 284 283 282 282 285 290 293 294 294 297 303 306 306 305 303 302 301 301 300 300 300 299 298 296 295 293 292 292 293 294 295 293 291 289 288 287
250 254 259 265 274 285 293 296 298 301 302 300 297 290 285 285 288 292 297 299 299 300 300 299 297 296 296 295 294 294 293 292 290 286 283 283 284 282 278 277 277 276 275 276 277 277 277 279 282 283 282 282 282 283 286 289 292 293 297 302 304 303 302 300 299 299 299 299 300 299 298 297 296 294 293 293 294 295 296 295 293 291 290 289 287
253 257 263 272 283 291 296 300 302 301 297 294 291 288 289 290 290 295 301 304 303 301 300 299 297 297 300 300 298 297 295 294 293 291 287 283 282 282 279 276 277 276 273 274 274 275 276 277 279 281 281 281 281 282 284 287 290 294 297 301 302 300 299 298 298 298 299 299 299 299 297 296 295 295 294 295 296 297 296 294 292 291 290 288 286
257 260 267 278 288 294 298 303 304 298 294 294 293 295 301 301 295 296 301 304 304 301 298 297 296 297 299 301 302 301 299 298 297 295 291 285 282 281 278 275 276 275 271 271 272 273 274 276 277 278 279 279 280 282 284 287 291 295 298 300 299 298 297 297 298 299 299 299 298 297 296 296 295 295 295 296 297 296 295 294 292 291 289 287 285
261 266 275 285 291 294 297 301 303 301 301 303 303 301 301 302 302 304 306 309 310 307 303 300 297 299 302 304 305 305 304 302 301 298 295 290 285 280 276 276 278 274 268 268 270 272 273 275 276 277 276 277 279 282 284 288 292 296 298 298 296 297 297 298 298 299 300 299 297 296 296 296 295 295 295 296 297 296 295 294 293 290 289 287 285
268 274 282 288 290 292 296 298 301 304 308 314 315 311 306 306 311 316 318 319 318 315 311 307 304 303 305 306 307 309 307 303 301 300 298 296 291 282 275 277 281 274 266 266 269 271 273 275 277 277 275 275 279 281 284 290 294 296 296 296 296 297 298 298 298 298 299 298 297 297 297 297 296 294 294 296 297 297 296 295 293 291 288 286 284
272 278 286 292 294 295 297 298 300 306 313 317 318 319 319 318 319 323 322 320 318 316 316 315 310 307 305 304 306 311 311 307 304 302 300 301 298 287 277 279 285 278 270 269 271 272 274 275 278 280 276 274 277 281 286 292 293 293 295 298 299 298 298 298 298 297 297 297 297 298 298 298 296 294 294 295 297 297 297 295 293 290 287 284 283
275 283 292 298 301 300 300 301 304 310 314 313 312 315 317 317 318 321 322 320 316 314 315 316 313 308 303 301 303 310 314 313 309 304 301 304 306 294 281 280 286 282 273 271 273 275 275 276 280 282 277 274 276 281 286 289 290 294 298 300 299 299 299 299 297 297 297 298 298 298 298 298 296 294 295 296 298 297 296 295 292 288 285 283 282
285 291 295 297 300 301 303 306 308 312 312 310 310 312 313 313 314 317 319 320 317 314 315 316 313 307 300 298 301 307 311 310 304 300 299 301 304 296 284 280 283 281 273 273 276 277 275 278 282 281 275 275 279 283 287 290 294 298 300 300 301 300 299 298 297 297 297 298 298 298 298 296 294 294 295 297 297 296 295 294 291 287 284 283 283
294 296 297 298 299 301 303 306 308 311 312 312 312 312 313 313 313 314 316 318 317 315 315 317 315 309 304 304 306 306 305 302 298 298 298 297 297 294 284 279 280 278 273 275 278 275 275 279 280 276 274 277 281 286 292 297 300 301 301 302 302 300 298 298 298 298 298 298 298 298 297 294 292 292 295 296 296 295 295 293 289 286 285 285 285
291 295 298 300 301 302 303 305 307 310 312 312 312 312 313 313 313 313 313 315 316 314 315 316 315 311 312 314 311 306 301 297 295 296 298 298 298 295 284 277 278 277 275 278 278 273 275 278 276 274 277 281 286 291 297 300 301 301 301 301 300 298 298 298 298 297 297 298 298 298 296 292 290 292 295 295 294 294 294 291 286 285 285 286 286
285 290 295 298 300 301 301 303 307 309 310 310 310 310 309 310 310 310 311 313 314 312 313 314 311 307 311 315 312 308 302 295 294 296 297 298 298 294 285 278 276 274 276 279 277 273 274 275 275 277 281 286 292 297 299 299 299 299 299 299 297 297 297 297 297 297 297 298 299 298 294 291 290 292 295 295 294 294 293 290 285 284 285 286 285
283 287 291 295 297 298 299 303 306 308 308 308 308 307 306 306 307 307 309 312 313 312 313 314 310 307 309 313 312 310 306 301 298 297 297 297 295 290 284 277 271 272 277 279 275 273 273 271 271 276 282 289 295 297 297 298 298 298 298 297 297 296 295 296 296 297 298 299 298 296 293 291 292 294 295 295 295 294 293 289 285 284 286 287 285
284 287 290 293 295 296 297 302 306 307 308 307 305 304 304 304 305 306 308 310 311 312 313 312 308 305 307 310 310 309 308 307 305 302 300 297 292 286 282 273 268 270 276 275 271 274 273 266 265 274 284 292 294 295 296 297 298 297 297 297 296 295 294 295 296 297 298 298 296 295 294 293 293 295 296 296 296 295 292 289 285 285 287 287 286
285 288 290 291 293 295 295 298 302 304 306 306 303 302 302 303 304 305 306 307 307 310 311 309 305 304 305 308 309 310 309 308 308 308 305 298 290 284 280 273 268 270 273 271 273 277 271 266 272 283 290 294 294 295 297 297 296 297 296 296 295 294 294 295 297 298 298 296 295 294 294 294 294 296 297 297 296 296 293 289 286 286 287 288 287
285 288 289 289 291 292 293 295 297 299 302 303 301 299 299 301 303 304 304 304 304 307 309 308 305 304 305 306 307 309 308 307 307 307 304 298 292 285 277 272 268 269 271 272 276 277 272 272 284 292 293 293 294 296 296 295 295 296 296 295 295 294 295 296 297 298 297 296 295 294 293 294 294 295 297 296 296 296 294 290 288 287 289 290 288
284 285 286 287 288 291 292 293 295 297 299 300 298 295 296 298 302 303 303 302 303 305 307 307 305 304 303 304 304 305 305 304 304 304 301 297 291 282 274 271 267 266 269 273 278 280 278 281 289 293 292 292 293 294 294 294 296 296 296 295 294 294 296 297 297 297 297 297 296 295 294 294 294 295 296 296 296 295 293 291 290 289 291 291 289
281 282 283 284 287 291 292 292 294 297 298 297 294 292 293 297 300 301 302 301 302 303 303 303 303 303 302 301 301 302 303 302 302 304 303 295 283 273 269 268 266 266 272 280 285 286 286 289 292 292 291 291 292 292 293 295 297 296 295 294 294 296 297 297 297 297 297 297 296 296 295 295 295 296 296 296 296 296 294 292 291 292 293 293 291
277 279 280 282 286 289 290 292 296 297 297 296 294 291 293 296 298 299 300 301 301 301 301 301 300 300 300 299 300 300 300 300 302 305 304 290 275 269 266 266 268 271 279 290 294 290 288 290 290 288 289 290 292 292 295 296 296 294 292 293 296 298 298 297 297 298 298 298 297 297 296 295 296 297 296 296 297 296 294 293 293 294 295 295 294
275 278 279 280 282 284 287 292 295 295 297 298 298 296 294 295 296 298 298 299 300 300 300 299 298 298 298 298 300 300 300 301 301 303 299 283 270 267 266 269 276 281 288 297 300 295 291 291 290 291 292 293 293 294 295 295 294 292 293 296 297 297 297 297 297 298 298 298 297 297 297 296 297 297 296 296 297 296 294 294 295 296 296 297 297
274 277 279 280 281 283 287 291 293 294 296 298 299 298 296 294 295 297 297 298 298 298 298 297 297 297 297 298 299 301 302 303 302 300 292 275 263 261 267 276 285 291 295 300 301 298 296 296 296 296 295 293 293 294 293 293 293 294 295 296 296 296 296 297 298 298 298 298 298 298 297 297 297 297 296 297 297 295 292 292 296 297 298 299 301
275 278 281 282 284 285 287 290 292 293 293 294 296 295 294 294 295 295 296 297 297 296 296 296 296 295 296 298 301 303 304 305 304 297 284 272 265 269 278 285 291 295 297 298 297 296 296 296 296 294 293 292 293 292 292 293 294 295 295 295 295 296 297 298 298 299 298 298 297 297 296 297 298 298 298 298 297 294 290 290 294 298 300 302 304
280 282 284 285 285 286 287 289 290 289 288 289 291 291 291 293 294 294 294 295 295 295 295 295 294 294 296 300 304 305 306 307 304 292 279 275 276 281 285 288 291 292 292 292 293 294 294 293 293 293 293 293 292 291 292 294 295 295 296 295 295 296 297 298 299 299 299 298 297 297 297 298 299 299 299 298 297 294 290 287 291 297 301 304 306
283 285 286 285 285 286 287 287 285 284 284 285 287 289 291 292 292 293 294 295 296 296 295 293 293 293 296 302 306 307 307 307 303 291 283 282 284 286 287 288 289 289 289 291 292 293 292 292 292 292 292 292 291 292 293 295 295 295 295 295 296 296 297 299 300 300 299 298 298 298 299 300 301 300 299 298 297 295 291 288 289 293 298 302 305
284 285 285 285 285 285 285 283 280 279 280 282 286 289 291 291 292 292 294 296 297 297 294 292 291 291 294 300 305 307 308 307 302 296 294 293 292 290 289 288 287 288 290 292 292 292 291 291 292 292 292 292 293 294 294 295 295 295 295 295 295 296 298 301 301 300 299 299 299 300 301 301 301 300 298 297 297 296 294 291 290 291 294 298 301
284 284 284 284 283 282 280 278 277 278 280 283 287 290 290 290 291 292 294 296 297 297 296 294 292 292 295 300 304 306 306 303 300 299 299 298 295 292 290 288 288 289 291 292 292 292 292 292 292 293 294 294 294 295 295 295 294 294 294 294 295 297 300 301 301 300 299 299 300 301 301 301 299 298 297 297 296 296 296 294 292 292 294 296 299
284 284 284 282 279 278 277 277 277 279 282 285 287 289 289 290 290 292 293 295 296 296 296 296 295 296 299 301 303 303 301 300 300 301 300 298 296 294 292 291 291 292 292 292 292 292 293 293 294 295 295 295 296 296 295 295 294 294 294 294 297 299 301 300 300 299 299 299 300 301 300 299 298 297 297 297 296 296 296 295 295 296 296 297 299
282 283 281 279 278 278 278 277 278 280 282 284 286 288 289 289 291 292 293 294 294 294 294 295 297 299 300 301 300 300 300 300 301 301 299 298 298 296 294 293 294 294 294 293 293 293 294 294 295 296 297 297 297 296 296 295 293 293 293 295 297 300 300 300 299 299 300 300 301 301 300 299 298 297 297 297 296 296 296 297 298 300 299 299 300
280 280 279 277 277 278 277 278 279 281 282 284 286 287 288 290 291 292 293 294 294 294 294 295 297 299 299 299 298 298 299 299 299 298 298 299 299 297 295 296 296 296 295 293 293 293 293 295 296 297 298 298 297 297 296 293 291 291 292 295 297 298 298 299 299 300 301 301 301 301 300 299 299 299 298 298 298 297 298 300 302 302 302 302 302
277 277 276 275 276 276 277 279 280 282 283 285 286 288 289 291 291 292 293 294 295 295 296 297 297 297 296 296 295 296 296 295 294 295 298 299 299 298 297 297 296 295 294 293 292 292 294 296 298 298 298 298 297 297 295 292 290 291 292 294 295 296 296 298 299 300 301 302 302 302 301 300 300 300 300 300 299 298 300 303 304 303 303 303 303
275 274 274 274 275 277 278 280 282 284 286 288 289 291 291 291 292 292 293 294 295 296 296 296 294 293 292 292 293 294 294 293 294 297 299 300 299 298 298 297 295 294 293 291 291 293 296 298 299 298 298 298 298 298 296 293 291 291 292 293 293 294 296 298 299 300 302 302 302 302 301 301 301 301 301 300 299 299 301 304 305 304 303 303 304
271 271 273 274 276 278 280 282 284 287 289 290 291 291 291 292 293 293 294 294 295 295 294 293 291 291 291 292 293 293 292 293 295 298 299 298 297 297 296 294 292 291 290 290 292 295 298 299 298 298 298 298 299 298 295 292 291 290 291 291 292 293 296 298 299 300 301 302 302 302 301 301 301 302 301 300 299 300 302 305 306 305 303 303 304
271 272 274 276 278 280 282 284 286 288 289 290 290 291 291 292 293 293 294 294 293 292 291 290 290 291 292 293 293 292 292 294 297 298 297 296 296 297 296 293 290 288 288 290 293 296 298 298 298 298 298 298 297 295 292 291 290 289 288 289 291 294 296 297 298 300 301 301 301 301 300 300 301 301 301 300 299 300 301 303 305 304 303 304 304
272 274 275 277 279 281 283 285 286 288 289 289 290 291 291 291 292 293 293 292 291 290 289 289 290 292 293 292 291 292 295 297 297 296 295 295 296 296 293 290 289 289 290 293 295 297 298 299 298 297 297 295 294 292 291 290 289 288 288 290 292 294 295 297 298 300 300 300 301 301 300 300 300 301 301 300 300 301 301 303 304 304 303 304 304
273 275 277 279 281 282 284 285 286 287 288 289 290 290 290 290 291 291 291 289 289 289 290 290 292 292 291 290 291 294 297 298 296 295 295 296 296 293 291 290 292 293 294 296 298 299 299 299 298 296 295 293 291 290 290 289 288 288 289 290 292 294 296 297 298 299 299 299 300 300 299 299 299 299 299 299 300 301 302 303 305 304 304 304 304
275 277 278 280 281 282 284 286 287 287 288 289 289 289 289 290 290 289 288 288 288 289 290 291 291 292 292 291 293 295 297 297 296 296 296 296 295 295 294 295 296 296 297 299 300 299 299 298 297 295 293 292 291 290 289 288 288 289 290 292 294 296 296 297 297 297 297 297 299 299 298 297 296 296 297 298 299 301 302 303 304 305 304 304 304
276 278 279 280 282 283 285 285 286 286 286 287 288 289 289 289 287 286 286 287 287 288 289 291 293 294 294 294 295 296 296 296 296 296 296 296 296 297 298 298 298 298 299 299 299 298 297 296 295 294 292 291 291 291 290 289 289 290 292 293 295 295 295 295 295 295 296 297 297 297 296 295 294 294 294 295 296 298 299 301 302 303 304 304 304
278 278 279 280 281 283 283 283 284 284 285 286 288 288 287 286 285 285 285 285 285 286 288 292 295 296 296 296 297 298 297 297 297 297 297 297 298 298 299 299 298 298 298 298 298 297 297 296 295 294 293 292 292 292 291 290 290 291 292 293 293 294 294 294 294 295 296 296 296 296 294 293 291 291 292 293 295 295 296 298 299 300 302 304 303
278 279 280 280 281 281 282 282 283 284 285 287 288 286 285 285 286 286 285 283 284 287 291 295 298 298 297 297 297 297 296 296 297 297 298 298 298 299 299 299 299 299 300 300 299 299 298 297 297 296 295 294 293 292 291 290 290 291 291 292 292 292 293 294 295 295 295 295 295 294 293 291 289 289 289 291 293 294 294 295 296 297 299 301 302
278 279 279 279 280 281 282 283 284 284 286 286 284 283 284 286 287 285 283 283 287 292 295 297 298 296 295 295 295 294 295 296 297 298 299 299 300 301 301 301 302 303 303 303 303 302 301 300 300 298 297 296 294 293 292 291 290 290 290 291 291 292 293 294 295 295 294 293 293 292 291 290 289 288 288 289 290 291 292 292 294 295 296 298 301
277 278 278 279 280 281 282 283 283 283 283 281 279 279 282 283 282 281 284 290 296 297 296 296 294 293 292 292 293 295 296 297 297 299 300 302 303 305 305 305 306 306 306 307 307 306 304 303 301 300 299 298 296 294 292 291 290 290 290 291 292 293 293 294 293 293 292 292 291 291 290 290 289 287 287 287 288 289 289 290 290 292 293 294 297
276 276 277 278 279 279 280 281 281 281 279 277 277 278 279 279 280 286 294 299 301 299 295 293 292 290 291 293 295 296 296 297 298 301 304 306 307 308 308 309 309 310 311 312 312 310 307 304 302 301 301 300 298 295 293 291 291 290 291 291 292 293 293 293 293 292 291 291 291 291 290 290 289 288 287 287 286 286 286 286 287 287 288 290 291
276 276 277 277 278 279 280 281 280 278 277 275 275 277 280 283 288 295 300 302 302 298 294 293 293 293 294 295 295 294 296 298 301 303 306 308 309 310 311 311 313 315 317 319 317 314 311 308 306 304 304 303 301 299 296 294 293 292 292 293 294 294 294 293 293 293 293 292 292 292 292 291 291 290 288 287 286 284 283 283 283 283 283 285 286
276 277 278 278 278 279 279 277 275 273 272 272 274 278 284 290 296 299 301 301 299 297 295 294 294 294 295 294 292 293 296 299 301 303 306 308 310 311 311 312 315 319 322 323 321 317 314 313 310 308 307 306 305 303 301 299 297 297 296 296 296 295 295 295 295 295 295 295 294 295 294 293 292 291 289 287 285 284 282 280 279 279 279 280 281
277 278 277 275 274 272 270 267 266 267 269 273 279 285 290 294 296 297 296 295 294 293 292 291 292 293 293 291 290 292 295 296 298 300 303 306 308 309 310 313 317 321 325 327 325 321 317 315 314 311 309 308 307 306 305 303 302 301 300 299 298 297 297 296 296 296 297 297 297 297 296 294 292 291 290 288 285 283 281 279 276 275 275 275 276
279 278 275 272 269 266 262 260 261 265 271 276 282 286 289 290 290 289 288 288 289 289 290 290 291 290 287 286 287 290 291 292 293 296 300 304 307 309 311 314 317 321 326 329 329 325 322 319 317 314 312 310 308 307 305 304 303 302 302 301 300 299 298 297 298 298 299 299 299 298 296 294 293 293 292 291 290 287 284 280 277 274 271 271 271
281 279 276 272 270 268 265 264 266 269 273 276 280 282 284 284 284 284 285 287 288 289 289 289 287 283 280 281 284 286 287 287 289 293 298 302 305 307 310 313 316 319 323 327 329 328 325 323 320 317 313 311 309 307 306 304 303 302 302 301 300 299 298 299 300 301 301 301 299 297 295 294 294 294 294 295 295 294 290 286 281 276 271 268 267
279 277 274 272 269 268 267 267 268 270 272 276 278 280 281 281 282 284 286 287 287 287 287 285 282 278 277 278 281 282 283 284 286 290 294 298 301 304 306 309 311 314 317 320 324 325 324 323 322 320 316 312 310 308 306 305 304 303 302 301 300 300 300 300 302 303 302 299 297 295 294 294 295 295 296 297 298 297 294 290 286 280 273 267 264
Height
5893 5894 5895 5895 5895 5894 5894 5893 5894 5894 5894 5894 5893 5893 5892 5890 5890 5890 5889 5888 5887 5886 5885 5883 5882 5881 5879 5878 5877 5876 5874 5872 5871 5870 5869 5868 5867 5867 5866 5864 5863 5862 5862 5861 5860 5859 5858 5857 5856 5855 5853 5852 5852 5851 5850 5849 5848 5846 5845 5844 5842 5841 5840 5838 5836 5835 5834 5831 5828 5826 5824 5823 5821 5818 5816 5814 5812 5809 5806 5804 5802 5801 5800 5800 5799
5891 5892 5892 5892 5892 5892 5891 5892 5892 5892 5892 5892 5891 5890 5889 5888 5887 5887 5886 5885 5884 5883 5882 5880 5879 5877 5875 5874 5872 5871 5869 5868 5866 5865 5864 5863 5862 5862 5861 5860 5859 5858 5857 5856 5855 5854 5853 5852 5851 5850 5849 5849 5848 5847 5846 5845 5843 5842 5840 5839 5838 5836 5834 5833 5831 5829 5828 5826 5823 5820 5817 5816 5815 5813 5810 5808 5805 5802 5800 5798 5797 5795 5793 5792 5792
5889 5889 5890 5890 5889 5889 5889 5890 5890 5889 5889 5889 5888 5887 5886 5885 5884 5883 5882 5880 5879 5878 5877 5876 5875 5873 5871 5870 5868 5867 5865 5863 5861 5860 5858 5857 5857 5856 5855 5854 5853 5852 5851 5850 5850 5849 5848 5847 5847 5846 5845 5844 5844 5843 5841 5840 5839 5837 5836 5834 5833 5831 5829 5827 5826 5824 5821 5820 5818 5814 5811 5809 5808 5806 5803 5801 5799 5796 5793 5792 5791 5789 5787 5785 5785
5887 5887 5887 5887 5887 5887 5888 5889 5888 5887 5886 5885 5884 5883 5883 5882 5880 5879 5878 5877 5876 5875 5873 5872 5870 5869 5867 5866 5864 5862 5861 5859 5857 5855 5853 5852 5851 5850 5849 5848 5848 5847 5846 5845 5844 5844 5843 5842 5842 5841 5841 5840 5840 5838 5837 5836 5834 5833 5831 5830 5828 5826 5824 5822 5821 5819 5816 5813 5811 5809 5805 5802 5800 5799 5797 5794 5792 5790 5788 5786 5784 5781 5780 5779 5777
5885 5885 5885 5885 5885 5886 5887 5887 5885 5883 5882 5881 5879 5878 5879 5878 5878 5877 5875 5874 5873 5871 5869 5868 5866 5865 5863 5862 5860 5857 5856 5855 5853 5851 5848 5846 5845 5844 5843 5842 5842 5842 5841 5840 5839 5839 5838 5837 5837 5837 5836 5836 5835 5834 5832 5831 5829 5828 5826 5825 5822 5821 5819 5818 5816 5814 5811 5808 5805 5803 5800 5796 5794 5792 5790 5788 5786 5784 5782 5780 5776 5773 5772 5771 5769
5883 5883 5883 5883 5884 5885 5884 5883 5881 5879 5878 5877 5876 5876 5877 5877 5877 5875 5873 5872 5871 5867 5865 5864 5862 5860 5859 5857 5855 5853 5851 5849 5848 5846 5843 5841 5839 5837 5837 5837 5837 5837 5836 5835 5834 5834 5834 5833 5832 5832 5832 5831 5830 5829 5828 5827 5826 5824 5822 5819 5817 5816 5814 5812 5810 5808 5805 5803 5799 5797 5794 5791 5788 5785 5783 5781 5779 5777 5775 5773 5770 5766 5764 5763 5762
5881 5881 5881 5882 5882 5882 5880 5878 5877 5875 5874 5874 5873 5873 5875 5875 5874 5872 5869 5867 5866 5863 5860 5859 5857 5856 5854 5852 5851 5849 5846 5844 5842 5840 5838 5835 5833 5830 5830 5831 5832 5831 5831 5830 5829 5829 5829 5828 5828 5827 5827 5826 5825 5824 5824 5823 5821 5819 5817 5815 5813 5811 5809 5806 5804 5802 5799 5797 5794 5791 5788 5785 5782 5779 5776 5774 5773 5770 5768 5766 5763 5760 5756 5755 5754
5878 5879 5879 5879 5879 5878 5876 5875 5873 5870 5870 5870 5869 5869 5872 5872 5870 5868 5865 5863 5861 5859 5857 5855 5853 5851 5850 5848 5847 5845 5842 5839 5837 5835 5832 5830 5827 5824 5824 5826 5827 5826 5825 5825 5824 5824 5824 5823 5823 5823 5822 5821 5821 5820 5819 5818 5817 5814 5812 5810 5808 5806 5803 5801 5798 5795 5793 5790 5787 5785 5782 5779 5777 5773 5770 5768 5766 5764 5761 5758 5756 5753 5750 5748 5747
5876 5876 5876 5876 5876 5874 5873 5871 5869 5867 5867 5867 5865 5867 5870 5869 5866 5865 5862 5859 5858 5856 5854 5852 5849 5847 5846 5844 5843 5841 5838 5835 5831 5829 5827 5825 5821 5818 5818 5821 5822 5820 5819 5820 5820 5819 5819 5818 5818 5818 5817 5817 5816 5815 5814 5813 5812 5810 5808 5805 5803 5800 5798 5795 5792 5789 5786 5783 5780 5777 5775 5772 5770 5767 5764 5762 5759 5757 5754 5751 5749 5747 5744 5742 5740
5873 5873 5873 5873 5872 5871 5869 5867 5865 5864 5864 5863 5863 5864 5865 5865 5863 5863 5860 5857 5855 5852 5850 5848 5844 5842 5841 5839 5838 5837 5833 5830 5827 5825 5822 5820 5815 5812 5814 5817 5817 5816 5816 5815 5815 5814 5814 5814 5813 5812 5812 5812 5811 5810 5810 5808 5807 5805 5803 5800 5797 5795 5792 5789 5786 5783 5780 5777 5774 5770 5768 5765 5762 5759 5757 5755 5753 5750 5747 5745 5742 5741 5738 5736 5735
5870 5870 5870 5869 5868 5867 5865 5863 5862 5862 5861 5861 5860 5860 5860 5860 5859 5858 5857 5854 5851 5848 5846 5843 5840 5837 5836 5834 5834 5831 5827 5824 5823 5820 5817 5815 5811 5808 5810 5812 5812 5812 5812 5811 5810 5810 5809 5808 5807 5807 5807 5806 5805 5805 5805 5803 5801 5799 5797 5794 5792 5789 5786 5784 5781 5777 5774 5771 5768 5764 5762 5759 5756 5753 5751 5749 5746 5743 5741 5739 5737 5735 5733 5731 5730
5867 5867 5867 5866 5865 5863 5862 5861 5859 5859 5858 5857 5856 5856 5856 5855 5853 5852 5850 5849 5846 5843 5840 5838 5835 5833 5831 5830 5829 5826 5822 5820 5818 5816 5813 5811 5808 5806 5806 5808 5808 5808 5807 5806 5806 5805 5805 5804 5802 5802 5802 5801 5800 5800 5799 5798 5796 5793 5791 5788 5786 5783 5780 5778 5775 5772 5768 5765 5762 5759 5756 5754 5751 5748 5745 5742 5740 5737 5735 5733 5731 5729 5727 5725 5724
5864 5864 5863 5862 5861 5860 5859 5858 5856 5855 5855 5853 5852 5851 5850 5849 5847 5845 5844 5842 5839 5837 5834 5832 5829 5827 5826 5825 5823 5821 5818 5815 5813 5811 5809 5807 5805 5803 5803 5803 5803 5803 5802 5801 5801 5800 5800 5799 5798 5797 5796 5796 5796 5795 5793 5791 5790 5788 5785 5782 5779 5777 5774 5771 5768 5766 5763 5760 5757 5754 5750 5748 5746 5743 5739 5736 5734 5731 5730 5728 5726 5724 5722 5720 5719
5860 5860 5860 5859 5858 5856 5855 5854 5853 5852 5851 5850 5848 5846 5844 5842 5841 5840 5838 5836 5833 5831 5828 5826 5824 5822 5820 5819 5817 5815 5813 5810 5808 5806 5804 5802 5800 5799 5798 5798 5798 5798 5797 5797 5796 5795 5795 5794 5793 5792 5792 5791 5791 5790 5788 5786 5784 5782 5780 5776 5773 5770 5767 5765 5762 5759 5757 5754 5751 5748 5745 5742 5740 5737 5734 5731 5728 5726 5724 5723 5721 5719 5717 5715 5714
5857 5857 5856 5855 5854 5853 5852 5850 5849 5848 5847 5845 5844 5841 5839 5837 5835 5834 5832 5830 5827 5825 5823 5821 5819 5817 5816 5814 5812 5810 5808 5806 5803 5802 5800 5798 5796 5794 5793 5793 5793 5792 5792 5792 5791 5791 5790 5790 5789 5788 5787 5786 5785 5784 5782 5781 5779 5777 5774 5771 5767 5763 5760 5757 5755 5752 5750 5747 5744 5742 5739 5737 5734 5731 5729 5726 5723 5721 5719 5718 5716 5713 5712 5711 5709
5853 5853 5852 5852 5851 5849 5848 5847 5845 5843 5842 5840 5838 5836 5834 5832 5830 5828 5826 5824 5821 5819 5818 5816 5814 5812 5810 5809 5807 5806 5804 5801 5799 5797 5795 5793 5790 5789 5788 5788 5787 5787 5788 5787 5787 5786 5786 5785 5785 5784 5782 5782 5780 5778 5776 5775 5773 5770 5767 5764 5761 5757 5753 5750 5748 5746 5743 5740 5738 5735 5733 5730 5728 5725 5723 5720 5718 5716 5714 5712 5710 5708 5706 5705 5704
5849 5848 5848 5847 5846 5845 5844 5843 5841 5839 5837 5835 5833 5830 5828 5826 5824 5822 5820 5817 5815 5813 5812 5811 5809 5807 5805 5804 5803 5801 5799 5797 5795 5793 5790 5788 5785 5784 5783 5782 5783 5784 5784 5783 5782 5781 5781 5780 5780 5779 5777 5776 5775 5772 5770 5768 5765 5763 5761 5758 5754 5751 5746 5743 5741 5740 5738 5734 5731 5729 5726 5724 5721 5719 5716 5714 5712 5710 5708 5707 5705 5702 5701 5700 5698
5844 5844 5843 5842 5842 5841 5840 5838 5836 5834 5832 5829 5827 5825 5822 5820 5818 5816 5814 5812 5810 5809 5808 5806 5804 5802 5801 5799 5798 5796 5795 5793 5791 5789 5786 5784 5781 5780 5778 5778 5779 5780 5779 5778 5777 5776 5775 5774 5774 5774 5772 5770 5768 5765 5763 5761 5758 5756 5754 5751 5748 5744 5740 5737 5735 5734 5732 5729 5726 5723 5720 5718 5715 5713 5711 5708 5706 5704 5702 5701 5699 5697 5696 5695 5693
5839 5839 5838 5838 5837 5836 5835 5833 5831 5829 5827 5824 5822 5819 5816 5814 5812 5810 5808 5806 5804 5803 5801 5800 5799 5798 5796 5794 5793 5792 5790 5788 5786 5784 5782 5779 5777 5775 5774 5775 5775 5775 5774 5773 5772 5772 5771 5770 5769 5768 5765 5764 5761 5759 5756 5754 5751 5749 5747 5744 5741 5737 5735 5732 5730 5727 5724 5722 5720 5717 5715 5712 5710 5708 5706 5703 5700 5698 5696 5695 5694 5692 5690 5689 5687
5835 5834 5833 5832 5832 5831 5830 5829 5827 5824 5822 5819 5817 5814 5810 5808 5806 5804 5803 5801 5799 5797 5795 5794 5793 5792 5791 5789 5788 5787 5785 5783 5782 5780 5777 5775 5773 5771 5771 5771 5771 5771 5770 5769 5769 5768 5767 5764 5763 5761 5759 5757 5755 5752 5750 5747 5744 5742 5739 5737 5734 5732 5729 5726 5723 5720 5718 5715 5713 5711 5709 5707 5705 5702 5701 5698 5696 5693 5691 5689 5688 5686 5684 5684 5682
5829 5829 5828 5827 5827 5826 5825 5824 5822 5820 5817 5814 5811 5808 5804 5802 5800 5799 5797 5795 5794 5792 5790 5789 5788 5786 5785 5784 5783 5782 5780 5778 5776 5774 5772 5769 5767 5767 5768 5768 5768 5767 5767 5765 5765 5764 5762 5759 5757 5756 5752 5750 5748 5745 5743 5741 5738 5735 5733 5730 5728 5726 5723 5720 5716 5714 5711 5709 5707 5705 5703 5701 5699 5697 5695 5693 5690 5688 5686 5684 5683 5681 5679 5678 5677
5823 5823 5823 5822 5822 5821 5820 5818 5817 5814 5811 5808 5805 5802 5799 5796 5795 5793 5792 5790 5789 5787 5786 5785 5783 5782 5781 5780 5779 5777 5775 5773 5771 5769 5766 5764 5763 5764 5764 5764 5763 5763 5762 5760 5759 5759 5757 5754 5752 5750 5746 5744 5741 5739 5736 5734 5731 5729 5726 5724 5722 5719 5716 5713 5710 5707 5705 5703 5701 5699 5697 5695 5694 5692 5690 5687 5685 5683 5681 5679 5678 5675 5673 5672 5670
5818 5818 5817 5816 5816 5815 5814 5813 5811 5809 5806 5803 5799 5795 5793 5791 5789 5788 5786 5785 5784 5782 5781 5780 5779 5778 5776 5775 5774 5772 5770 5768 5765 5763 5761 5761 5760 5760 5759 5759 5759 5758 5757 5755 5753 5752 5750 5748 5746 5743 5740 5737 5735 5732 5730 5728 5725 5723 5720 5718 5715 5712 5709 5706 5703 5701 5699 5697 5695 5694 5692 5690 5688 5686 5684 5682 5680 5678 5676 5675 5673 5670 5668 5667 5665
5812 5811 5810 5809 5809 5809 5808 5807 5805 5803 5801 5797 5793 5790 5787 5785 5784 5783 5781 5780 5779 5778 5777 5776 5775 5774 5772 5770 5769 5767 5765 5763 5761 5758 5757 5757 5756 5755 5755 5754 5754 5753 5751 5749 5748 5746 5744 5742 5739 5736 5733 5731 5729 5726 5724 5721 5719 5717 5714 5711 5708 5705 5702 5700 5697 5695 5694 5692 5690 5689 5687 5685 5683 5681 5679 5677 5675 5673 5672 5670 5669 5666 5664 5662 5660
5805 5805 5804 5803 5803 5803 5802 5801 5799 5797 5794 5791 5788 5785 5782 5780 5779 5778 5777 5776 5774 5773 5772 5771 5770 5769 5767 5766 5764 5762 5760 5758 5756 5755 5754 5753 5752 5751 5750 5749 5748 5747 5745 5744 5742 5740 5738 5735 5733 5730 5727 5725 5723 5720 5718 5715 5712 5710 5708 5704 5702 5699 5696 5694 5692 5690 5689 5687 5685 5684 5682 5680 5678 5676 5674 5672 5670 5669 5668 5667 5665 5662 5660 5658 5656
5799 5799 5799 5798 5797 5796 5795 5794 5792 5790 5788 5785 5783 5780 5778 5776 5775 5773 5772 5771 5769 5768 5767 5766 5765 5763 5762 5760 5758 5756 5754 5752 5751 5750 5750 5749 5748 5747 5745 5744 5742 5741 5740 5738 5736 5734 5731 5728 5726 5724 5721 5719 5717 5714 5712 5709 5706 5703 5701 5698 5695 5693 5691 5689 5687 5685 5683 5682 5680 5678 5677 5675 5673 5671 5669 5668 5666 5664 5664 5663 5661 5658 5656 5654 5652
5794 5793 5792 5792 5791 5789 5788 5787 5785 5784 5782 5779 5777 5776 5774 5772 5770 5769 5768 5766 5765 5763 5762 5761 5760 5758 5756 5755 5753 5751 5750 5748 5747 5746 5745 5744 5743 5742 5740 5738 5736 5735 5733 5732 5729 5727 5725 5722 5719 5718 5715 5713 5710 5708 5706 5703 5700 5697 5695 5692 5690 5688 5685 5684 5682 5680 5678 5677 5675 5673 5672 5670 5668 5667 5665 5663 5662 5660 5659 5658 5656 5654 5653 5651 5649
5788 5787 5786 5785 5784 5782 5781 5780 5779 5778 5776 5774 5772 5771 5770 5768 5766 5765 5763 5761 5760 5758 5757 5756 5755 5753 5752 5750 5748 5747 5745 5743 5742 5741 5740 5738 5737 5736 5734 5733 5731 5729 5727 5725 5723 5720 5718 5716 5713 5711 5709 5707 5704 5702 5699 5697 5694 5691 5689 5687 5685 5683 5680 5679 5677 5675 5674 5672 5670 5668 5667 5666 5664 5662 5661 5659 5658 5656 5655 5653 5652 5650 5649 5647 5646
5782 5781 5780 5779 5777 5776 5775 5774 5773 5772 5770 5769 5767 5766 5764 5763 5762 5760 5758 5757 5755 5753 5752 5751 5749 5748 5747 5745 5743 5742 5740 5738 5737 5735 5734 5733 5731 5730 5728 5727 5725 5723 5720 5718 5716 5714 5712 5710 5708 5705 5703 5701 5698 5695 5693 5691 5689 5686 5684 5682 5679 5678 5676 5674 5672 5671 5669 5668 5666 5664 5663 5662 5660 5659 5657 5655 5654 5652 5651 5649 5648 5646 5645 5643 5641
5774 5773 5773 5772 5771 5771 5769 5768 5767 5766 5764 5763 5761 5760 5759 5758 5757 5755 5753 5752 5750 5748 5747 5745 5744 5743 5742 5739 5737 5737 5736 5734 5732 5730 5729 5727 5726 5724 5722 5720 5719 5717 5714 5712 5710 5707 5705 5703 5701 5699 5697 5695 5692 5690 5688 5685 5683 5681 5679 5677 5675 5673 5672 5670 5668 5667 5665 5664 5662 5661 5659 5658 5657 5655 5654 5652 5650 5648 5647 5645 5644 5642 5641 5639 5638
5768 5767 5767 5766 5765 5765 5764 5762 5761 5760 5758 5757 5756 5755 5753 5752 5751 5750 5748 5746 5745 5743 5742 5740 5739 5737 5737 5735 5733 5732 5730 5729 5727 5725 5723 5721 5720 5718 5716 5714 5712 5710 5708 5706 5704 5701 5699 5697 5695 5694 5692 5690 5687 5685 5683 5680 5678 5676 5674 5672 5671 5669 5667 5666 5664 5663 5662 5660 5659 5657 5656 5654 5653 5652 5650 5648 5647 5645 5644 5642 5640 5639 5637 5636 5634
5762 5761 5761 5760 5760 5759 5757 5756 5755 5753 5752 5751 5750 5749 5748 5747 5745 5744 5742 5741 5739 5738 5736 5735 5733 5732 5731 5729 5727 5726 5724 5723 5721 5720 5718 5716 5714 5712 5710 5708 5706 5704 5702 5700 5698 5695 5694 5692 5690 5688 5687 5685 5682 5680 5678 5675 5673 5671 5669 5668 5666 5665 5664 5662 5661 5659 5658 5657 5655 5654 5652 5651 5649 5648 5646 5645 5643 5642 5640 5638 5637 5635 5634 5632 5631
5756 5755 5755 5754 5754 5753 5751 5750 5749 5747 5746 5745 5744 5743 5742 5741 5740 5738 5737 5735 5733 5732 5730 5729 5727 5726 5725 5723 5722 5720 5719 5717 5716 5715 5713 5711 5709 5706 5704 5702 5700 5698 5696 5694 5692 5691 5689 5687 5685 5683 5681 5679 5677 5675 5672 5670 5668 5667 5665 5664 5662 5661 5660 5658 5657 5656 5654 5653 5652 5650 5649 5647 5646 5644 5643 5641 5640 5639 5637 5636 5634 5633 5631 5630 5628
5750 5750 5749 5748 5747 5746 5745 5744 5743 5742 5741 5740 5739 5738 5736 5735 5733 5732 5731 5729 5727 5726 5725 5723 5722 5721 5719 5718 5716 5715 5713 5712 5711 5709 5707 5705 5703 5700 5698 5696 5695 5693 5691 5689 5688 5686 5684 5683 5681 5679 5677 5674 5672 5670 5668 5666 5664 5663 5661 5660 5659 5658 5656 5655 5653 5652 5651 5650 5649 5647 5645 5644 5643 5641 5640 5638 5637 5636 5634 5633 5632 5630 5629 5627 5625
5744 5743 5743 5742 5741 5740 5739 5738 5737 5736 5735 5734 5733 5732 5730 5729 5727 5726 5724 5723 5722 5721 5719 5718 5716 5715 5713 5712 5711 5709 5708 5706 5705 5703 5701 5699 5697 5695 5693 5691 5689 5688 5686 5685 5683 5681 5679 5678 5676 5674 5672 5669 5667 5665 5664 5662 5660 5659 5658 5656 5655 5654 5653 5651 5650 5649 5648 5647 5645 5644 5642 5641 5640 5638 5637 5635 5634 5633 5631 5630 5629 5628 5626 5624 5623
5738 5737 5736 5736 5735 5734 5733 5732 5731 5730 5729 5728 5727 5726 5724 5723 5721 5720 5719 5718 5717 5716 5714 5712 5711 5709 5708 5706 5705 5703 5702 5701 5699 5697 5695 5693 5691 5689 5687 5686 5684 5683 5682 5680 5678 5676 5674 5673 5671 5669 5667 5665 5663 5661 5660 5658 5657 5656 5654 5653 5652 5650 5649 5648 5647 5646 5645 5643 5642 5641 5639 5638 5637 5635 5634 5633 5631 5630 5629 5627 5627 5625 5624 5622 5620
5732 5731 5730 5729 5729 5728 5727 5726 5725 5724 5723 5722 5721 5720 5718 5717 5716 5715 5713 5712 5711 5710 5708 5706 5705 5704 5702 5701 5699 5698 5697 5695 5693 5691 5689 5688 5686 5685 5683 5681 5679 5678 5677 5675 5673 5671 5669 5668 5666 5664 5662 5660 5659 5657 5656 5654 5653 5652 5650 5649 5648 5647 5645 5644 5643 5642 5641 5640 5639 5638 5636 5635 5634 5632 5631 5630 5628 5627 5626 5625 5624 5623 5621 5620 5618
5727 5725 5724 5724 5723 5722 5721 5720 5719 5718 5717 5716 5715 5714 5712 5711 5710 5709 5708 5706 5705 5703 5702 5701 5699 5698 5697 5695 5694 5693 5691 5689 5687 5685 5684 5682 5681 5680 5678 5677 5675 5673 5671 5669 5668 5666 5664 5663 5661 5659 5657 5656 5654 5653 5652 5650 5649 5648 5646 5645 5644 5643 5642 5641 5640 5639 5638 5637 5636 5635 5633 5632 5631 5630 5628 5627 5626 5624 5623 5622 5621 5620 5619 5617 5616
5720 5720 5719 5718 5717 5716 5715 5714 5713 5712 5711 5710 5709 5708 5706 5705 5705 5703 5702 5701 5699 5698 5696 5695 5694 5693 5692 5690 5689 5687 5685 5683 5682 5680 5678 5677 5676 5675 5673 5672 5670 5668 5666 5664 5663 5661 5659 5658 5656 5654 5653 5651 5650 5648 5647 5646 5644 5643 5642 5641 5640 5639 5638 5637 5636 5635 5634 5633 5633 5631 5630 5629 5628 5627 5626 5624 5623 5622 5621 5620 5619 5618 5617 5615 5614
5714 5714 5713 5712 5711 5710 5709 5708 5707 5706 5705 5704 5703 5702 5701 5700 5699 5697 5696 5695 5693 5692 5691 5690 5689 5688 5687 5685 5683 5681 5680 5678 5676 5675 5674 5673 5671 5670 5668 5666 5665 5663 5661 5659 5658 5656 5655 5653 5651 5650 5648 5647 5645 5644 5643 5641 5640 5639 5638 5637 5636 5635 5635 5634 5633 5632 5631 5630 5629 5628 5627 5626 5625 5624 5623 5622 5621 5619 5618 5617 5617 5616 5615 5613 5612
5708 5707 5707 5706 5705 5704 5703 5702 5701 5700 5699 5698 5697 5696 5695 5694 5693 5691 5690 5689 5688 5687 5687 5685 5684 5683 5681 5680 5678 5676 5674 5673 5672 5671 5670 5668 5667 5665 5664 5662 5660 5658 5657 5655 5653 5652 5650 5648 5647 5645 5644 5642 5641 5640 5638 5637 5636 5635 5634 5633 5633 5632 5631 5630 5630 5629 5628 5627 5626 5625 5624 5623 5622 5621 5620 5619 5618 5617 5616 5615 5614 5614 5612 5611 5610
5702 5701 5701 5700 5699 5698 5697 5696 5696 5694 5693 5692 5691 5690 5689 5688 5687 5686 5684 5684 5683 5683 5682 5681 5679 5678 5676 5675 5673 5671 5670 5669 5668 5667 5665 5664 5662 5661 5659 5657 5656 5654 5652 5651 5649 5647 5646 5644 5642 5641 5640 5638 5637 5636 5635 5634 5632 5632 5631 5630 5629 5628 5628 5627 5626 5625 5625 5624 5623 5622 5621 5620 5619 5618 5617 5616 5615 5614 5613 5612 5612 5611 5610 5609 5608
5696 5695 5695 5694 5693 5692 5691 5690 5690 5689 5687 5687 5686 5685 5684 5683 5682 5680 5680 5679 5679 5678 5677 5676 5675 5673 5671 5670 5668 5667 5666 5665 5664 5662 5661 5659 5658 5656 5655 5653 5651 5650 5648 5647 5645 5644 5642 5640 5639 5637 5636 5634 5633 5632 5631 5630 5629 5628 5627 5627 5626 5625 5624 5624 5623 5622 5621 5620 5620 5619 5618 5617 5616 5615 5614 5613 5612 5611 5610 5610 5609 5608 5608 5607 5606
5689 5689 5688 5687 5686 5685 5685 5684 5683 5682 5681 5681 5680 5679 5679 5678 5677 5676 5675 5675 5674 5673 5671 5670 5669 5667 5666 5665 5664 5663 5662 5661 5659 5658 5657 5655 5654 5652 5651 5649 5648 5646 5645 5644 5642 5640 5639 5637 5635 5634 5632 5631 5630 5629 5627 5627 5626 5625 5624 5623 5622 5622 5621 5620 5619 5619 5618 5617 5616 5615 5614 5614 5613 5612 5611 5610 5609 5608 5607 5607 5606 5606 5605 5604 5603
5683 5682 5681 5680 5679 5679 5678 5678 5677 5676 5675 5675 5674 5674 5673 5673 5672 5671 5670 5670 5669 5667 5665 5664 5663 5663 5662 5661 5661 5659 5658 5657 5656 5654 5653 5652 5651 5649 5648 5646 5645 5644 5642 5641 5639 5637 5636 5634 5632 5630 5629 5628 5626 5625 5624 5623 5622 5622 5621 5620 5619 5618 5618 5617 5616 5615 5615 5614 5613 5612 5611 5610 5609 5609 5608 5607 5606 5605 5604 5604 5603 5603 5602 5602 5601
5676 5676 5675 5674 5673 5673 5672 5672 5671 5670 5670 5669 5669 5669 5668 5668 5667 5666 5665 5664 5662 5661 5660 5659 5659 5659 5658 5658 5657 5655 5654 5653 5652 5651 5650 5649 5648 5646 5645 5644 5642 5641 5639 5638 5636 5634 5633 5631 5629 5628 5626 5625 5624 5622 5621 5620 5619 5618 5617 5617 5616 5615 5614 5614 5613 5612 5611 5610 5609 5609 5608 5607 5606 5605 5604 5604 5603 5602 5601 5600 5600 5600 5599 5599 5598
5670 5669 5668 5667 5667 5667 5666 5666 5665 5665 5664 5664 5664 5664 5663 5663 5662 5661 5659 5658 5657 5656 5656 5656 5656 5655 5655 5654 5653 5652 5651 5650 5649 5648 5647 5646 5645 5644 5642 5641 5640 5638 5637 5635 5633 5632 5630 5628 5626 5625 5624 5622 5621 5620 5619 5617 5616 5615 5615 5614 5613 5612 5611 5611 5610 5609 5608 5607 5606 5605 5604 5603 5602 5601 5601 5600 5599 5598 5597 5597 5596 5596 5596 5596 5596
5664 5664 5663 5662 5662 5662 5661 5661 5660 5659 5659 5659 5659 5659 5658 5658 5657 5656 5655 5653 5653 5653 5652 5652 5652 5651 5651 5650 5649 5649 5648 5647 5646 5645 5645 5644 5643 5641 5640 5639 5637 5636 5635 5633 5631 5629 5627 5626 5624 5623 5621 5620 5619 5617 5616 5615 5614 5613 5612 5611 5610 5610 5609 5608 5607 5606 5605 5604 5603 5602 5601 5599 5598 5598 5597 5596 5595 5595 5594 5593 5593 5593 5593 5593 5593
5659 5658 5658 5658 5658 5657 5657 5656 5656 5655 5655 5655 5655 5654 5654 5653 5652 5651 5650 5650 5649 5649 5649 5648 5648 5648 5647 5646 5646 5645 5645 5644 5643 5643 5642 5641 5640 5639 5638 5636 5635 5634 5633 5631 5629 5627 5625 5623 5622 5620 5619 5618 5616 5615 5614 5613 5612 5611 5610 5609 5608 5607 5606 5605 5604 5603 5602 5600 5599 5598 5597 5596 5595 5594 5594 5593 5592 5591 5591 5590 5590 5589 5590 5590 5590
5654 5654 5654 5653 5653 5653 5652 5652 5652 5651 5651 5651 5650 5649 5649 5648 5648 5647 5646 5646 5645 5645 5645 5645 5644 5644 5643 5643 5642 5642 5641 5641 5640 5640 5639 5639 5638 5637 5636 5634 5633 5631 5630 5629 5627 5625 5624 5622 5620 5618 5617 5615 5614 5613 5611 5610 5609 5608 5607 5606 5605 5604 5603 5602 5601 5600 5598 5597 5596 5595 5594 5594 5593 5592 5591 5590 5590 5589 5588 5587 5587 5587 5587 5587 5587
5650 5650 5650 5649 5649 5648 5648 5648 5647 5647 5646 5646 5645 5645 5644 5644 5643 5643 5642 5642 5642 5641 5641 5641 5640 5640 5640 5639 5639 5639 5638 5638 5638 5637 5636 5636 5635 5634 5633 5632 5630 5629 5628 5626 5625 5623 5622 5620 5618 5616 5615 5613 5612 5610 5609 5607 5606 5605 5604 5603 5602 5601 5600 5599 5598 5597 5596 5595 5594 5593 5592 5592 5591 5590 5589 5588 5588 5587 5586 5586 5585 5584 5584 5584 5584